Regional Weather Roundup
Issued by NWS Green Bay, WI

Home | Current Version | Previous Version | Text Only | Print | Product List | Glossary On
Versions: 1 2 3 4 5 6 7 8 9 10 11 12 13 14 15 16 17 18 19 20 21 22 23 24 25 26 27 28 29 30 31 32 33 34 35 36 37 38 39 40 41 42 43 44 45 46 47 48 49 50
000
ASUS43 KGRB 230811
RWRGRB

NORTH-CENTRAL AND NORTHEAST WISCONSIN REGIONAL WEATHER ROUNDUP
NATIONAL WEATHER SERVICE GREEN BAY WI
200 AM CST THU FEB 23 2017

WIZ005-009-010>012-018-019-230900-
NORTH CENTRAL WISCONSIN

CITY           SKY/WX    TMP DP  RH WIND       PRES   REMARKS
IRONWOOD       FLURRIES  32  31  96 VRB5      29.77R
MANITOWISH WTR CLOUDY    31  31 100 N9        29.71R
ARBOR VITAE    CLOUDY    34  32  93 N13         N/A
EAGLE RIVER    CLOUDY    32  32 100 N8        29.68R FOG
LAND O LAKES   CLOUDY    32  31  96 N8        29.70R
RHINELANDER    CLOUDY    34  33  96 N9        29.67R
PHILLIPS       CLOUDY    32  32  99 NW7       29.72R
ANTIGO         CLOUDY    36  33  91 N9        29.63R
TOMAHAWK       CLOUDY    33  32  95 N10G17    29.69R
MERRILL        NOT AVBL
$$

WIZ013-073-230900-
NORTHEAST WISCONSIN

CITY           SKY/WX    TMP DP  RH WIND       PRES   REMARKS
IRON MOUNTAIN  LGT SNOW  33  31  92 N8        29.62S FOG
MARINETTE      PTCLDY    39  35  86 N12       29.60R
OCONTO         PTCLDY    38  37  95 N5        29.59R
$$

WIZ017-030-035>037-045-230900-
CENTRAL WISCONSIN

CITY           SKY/WX    TMP DP  RH WIND       PRES   REMARKS
MEDFORD        CLOUDY    35  32  90 N12G20    29.69R
WAUSAU         CLOUDY    39  37  92 NW10      29.64R
MOSINEE        CLOUDY    39  39 100 NW14      29.66R
MARSHFIELD     CLOUDY    39  36  89 NW17      29.67R
WISC RAPIDS    MOCLDY    44  41  89 NW9       29.67R
STEVENS POINT  CLOUDY    40  39  97 NW9       29.65R
WAUPACA        PTCLDY    45  39  79 W8        29.62R
SHAWANO        MOCLDY    37  35  92 N6        29.61R
CLINTONVILLE   CLOUDY    34  32  93 CALM      29.61R
WAUTOMA        CLOUDY    46  42  86 W24G31    29.65R
$$

WIZ038-039-048-051-230900-
FOX VALLEY

CITY           SKY/WX    TMP DP  RH WIND       PRES   REMARKS
NWS GREEN BAY  CLEAR     38  38 100 CALM      29.60R
APPLETON       PTCLDY    34  34 100 W8        29.59R
OSHKOSH        CLEAR     46  38  73 W8        29.61R
FOND DU LAC    CLEAR     46  37  71 W9        29.62R
$$

WIZ022-050-052-230900-
EAST CENTRAL WISCONSIN

CITY           SKY/WX    TMP DP  RH WIND       PRES   REMARKS
EPHRAIM        CLOUDY    36  36 100 N10       29.57R
WASHINGTON ISL CLOUDY    35  33  93 NW7G16    29.58R
STURGEON BAY   MOCLDY    37  36  96 N8        29.59R FOG
MANITOWOC      CLEAR     39  38  96 NW3       29.59R FOG
SHEBOYGAN      CLEAR     47  38  71 W9        29.59R
$$

LMZ563-521-522-541>543-230900-
LAKESHORE

STATION/POSITION TIME  TEMP    WIND        PRES    VSBY  WAVE
                       AIR SEA DIR/SP/G                  HT/PER
                 (UTC) (F)     (DEG/KT/KT) (MB)    (MI)  (FT/S)
SHEBOYGAN LKSHOR 0800   51     260/ 10/ 12 1001.8R
KEWAUNEE LKSHORE 0748   39     360/  3/ 10 1001.4R
NORTHPORT PIER   0740   35     310/ 12/ 14 1002.0R
SISTER BAY LKSHO 0735   35     350/ 13/ 15   N/A
CHAMBERS ISLAND  0740   35     330/  7/ 10 1002.0R
MENOMINEE LKSHOR 0748   38     330/ 13/ 14 1001.4R
$$




USA.gov is the U.S. government's official web portal to all federal, state and local government web resources and services.